This demonstration page uses our WeatherBlox Daily Observations layout. Learn more.

Left ArrowRight Arrow

Hourly Observations for April 19, 2019

Temp ( °F °C ) Dew Point ( °F °C ) Humidity (%) Winds ( mph kmh ) Pressure ( in mb ) Visibility ( mi km ) Precip ( " mm )
12:52 am 00:52 Partly Cloudy 45 7.2 39 3.9 80 80 NNW 6 9 30.03 1017 10 16 0.00 0.00
1:52 am 01:52 Mostly Clear 45 7.2 38 3.3 77 77 Calm 30.04 1017 10 16 0.00 0.00
2:52 am 02:52 Clear 44 6.7 37 2.8 76 76 NNW 9 15 30.04 1017 10 16 0.00 0.00
3:52 am 03:52 Clear 44 6.7 37 2.8 76 76 N 12 19 30.03 1017 10 16 0.00 0.00
4:52 am 04:52 Clear 43 6.1 37 2.8 80 80 N 13 20 30.05 1018 10 16 0.00 0.00
5:52 am 05:52 Clear 43 6.1 36 2.2 76 76 N 12 19 30.08 1019 10 16 0.00 0.00
6:52 am 06:52 Sunny 40 4.4 35 1.7 83 83 N 8 13 30.08 1019 10 16 0.00 0.00
7:52 am 07:52 Sunny 44 6.7 36 2.2 73 73 NNW 9 15 30.11 1020 10 16 0.00 0.00
8:52 am 08:52 Sunny 47 8.3 37 2.8 69 69 N 9 15 30.12 1020 10 16 0.00 0.00
9:52 am 09:52 Sunny 50 10 38 3.3 63 63 N 8 13 30.11 1020 10 16 0.00 0.00
10:52 am 10:52 Mostly Sunny 54 12.2 38 3.3 55 55 N 8 13 30.11 1020 10 16 0.00 0.00
11:52 am 11:52 Mostly Sunny 58 14.4 33 0.6 39 39 N 9 15 30.11 1020 10 16 0.00 0.00
12:52 pm 12:52 Partly Cloudy 61 16.1 33 0.6 35 35 NNW 10 17 30.09 1019 9 14 0.00 0.00
1:52 pm 13:52 Partly Cloudy 62 16.7 30 -1.1 30 30 N 8 13 30.07 1018 10 16 0.00 0.00
2:52 pm 14:52 Mostly Sunny 64 17.8 29 -1.7 27 27 N 12 19 30.04 1017 10 16 0.00 0.00
3:48 pm 15:48 Mostly Sunny 64 18 27 -3 24 24 N 10 17 29.99 1016 10 16 0.00 0.00
3:52 pm 15:52 Mostly Sunny 65 18.3 27 -2.8 24 24 N 8 13 30.01 1016 10 16 0.00 0.00
4:52 pm 16:52 Mostly Sunny 66 18.9 28 -2.2 24 24 NNE 12 19 29.99 1016 10 16 0.00 0.00
5:52 pm 17:52 Mostly Sunny 66 18.9 28 -2.2 24 24 N 8 13 29.98 1015 10 16 0.00 0.00
6:52 pm 18:52 Mostly Sunny 66 18.9 28 -2.2 24 24 NNE 3 6 29.96 1015 10 16 0.00 0.00
7:52 pm 19:52 Sunny 63 17.2 29 -1.7 28 28 Calm 29.96 1015 10 16 0.00 0.00
8:52 pm 20:52 Clear 57 13.9 31 -0.6 37 37 S 5 7 29.96 1015 10 16 0.00 0.00
9:52 pm 21:52 Clear 53 11.7 35 1.7 51 51 SE 6 9 29.97 1015 10 16 0.00 0.00
11:52 pm 23:52 Clear 50 10 35 1.7 57 57 SSE 6 9 29.95 1014 10 16 0.00 0.00

Powered by AerisWeather